Location: Arborea
(39.7744°N, 8.5819°E)
Time: 03:58:40
(UTC+00:00)

X-37B - Pass Details

Date: 24 October 2021
Orbit: 330 x 341 km, 45.0° (Epoch: 20 November)

Event Time Altitude Azimuth Distance (km) Brightness Sun altitude
Rises 17:39:34 0° 295° (WNW) 2,126 5.5 -13.3°
Reaches altitude 10° 17:41:37 10° 301° (WNW) 1,286 4.1 -13.7°
Maximum altitude 17:44:26 51° 18° (NNE) 438 0.6 -14.3°
Enters shadow 17:45:16 36° 71° (ENE) 561 0.9 -14.4°
